Data No, UTC Date,UTC Time,Latitude,Longitude,Course(deg),Temp(degC),Sal(psu)
234,2018/8/18,12:41,35-35.61N,139-47.05E,188,25.698,26.9849
235,2018/8/18,12:42,35-35.43N,139-47.11E,153,25.758,27.0318
236,2018/8/18,12:43,35-35.28N,139-47.26E,140,25.661,26.5621
237,2018/8/18,12:44,35-35.12N,139-47.43E,137,25.64,26.1175
238,2018/8/18,12:45,35-34.98N,139-47.64E,129,25.624,26.6416
239,2018/8/18,12:46,35-34.84N,139-47.85E,128,25.629,26.6246
240,2018/8/18,12:47,35-34.69N,139-48.08E,129,25.627,26.6298
241,2018/8/18,12:48,35-34.55N,139-48.30E,128,25.615,26.5589
242,2018/8/18,12:49,35-34.39N,139-48.54E,128,25.665,26.6707
243,2018/8/18,12:50,35-34.23N,139-48.79E,128,25.685,26.8175
244,2018/8/18,12:51,35-34.06N,139-49.06E,128,25.691,27.0731
245,2018/8/18,12:52,35-33.88N,139-49.32E,128,25.697,27.275
246,2018/8/18,12:53,35-33.70N,139-49.59E,128,26.005,27.4168
247,2018/8/18,12:54,35-33.52N,139-49.87E,127,25.937,27.6669
248,2018/8/18,12:55,35-33.34N,139-50.17E,127,25.981,27.785
249,2018/8/18,12:56,35-33.11N,139-50.41E,147,25.901,27.9872
250,2018/8/18,12:57,35-32.85N,139-50.53E,163,26.172,28.0349
251,2018/8/18,12:58,35-32.56N,139-50.63E,163,26.397,28.34
252,2018/8/18,12:59,35-32.27N,139-50.73E,164,26.4,29.0502
253,2018/8/18,13:00,35-31.99N,139-50.82E,168,26.354,29.6729
254,2018/8/18,13:01,35-31.69N,139-50.89E,169,26.286,30.0121
255,2018/8/18,13:02,35-31.39N,139-50.96E,169,26.296,30.2267
256,2018/8/18,13:03,35-31.08N,139-51.02E,172,26.283,30.3257
257,2018/8/18,13:04,35-30.78N,139-51.00E,188,26.302,30.3432
258,2018/8/18,13:05,35-30.47N,139-50.93E,189,26.342,30.3445
259,2018/8/18,13:06,35-30.18N,139-50.85E,196,26.333,30.3156
260,2018/8/18,13:07,35-29.88N,139-50.73E,201,26.302,30.3302
261,2018/8/18,13:08,35-29.60N,139-50.55E,208,26.269,30.3719
262,2018/8/18,13:09,35-29.34N,139-50.35E,213,26.147,30.3703
263,2018/8/18,13:10,35-29.12N,139-50.07E,231,25.949,30.5015
264,2018/8/18,13:11,35-28.94N,139-49.76E,233,25.955,30.6864
265,2018/8/18,13:12,35-28.75N,139-49.46E,232,26.039,30.7425
266,2018/8/18,13:13,35-28.56N,139-49.16E,233,25.94,30.706
267,2018/8/18,13:14,35-28.37N,139-48.84E,234,25.871,30.4727
268,2018/8/18,13:15,35-28.19N,139-48.53E,233,25.819,30.2221
269,2018/8/18,13:16,35-28.00N,139-48.21E,234,25.835,30.1411
270,2018/8/18,13:17,35-27.82N,139-47.90E,234,25.863,30.0268
271,2018/8/18,13:18,35-27.63N,139-47.58E,234,25.866,29.9363
272,2018/8/18,13:19,35-27.45N,139-47.26E,234,25.874,29.9146
273,2018/8/18,13:20,35-27.26N,139-46.94E,234,25.838,29.8535
274,2018/8/18,13:21,35-27.08N,139-46.62E,234,25.821,29.7121
275,2018/8/18,13:22,35-26.90N,139-46.31E,234,25.827,29.5609
276,2018/8/18,13:23,35-26.71N,139-45.99E,234,25.815,29.5101
277,2018/8/18,13:24,35-26.52N,139-45.67E,234,25.814,29.5303
278,2018/8/18,13:25,35-26.34N,139-45.35E,234,25.815,29.5798
279,2018/8/18,13:26,35-26.15N,139-45.05E,231,25.826,29.6328
280,2018/8/18,13:27,35-25.95N,139-44.74E,230,25.847,29.6676
281,2018/8/18,13:28,35-25.74N,139-44.43E,230,25.922,29.7371
282,2018/8/18,13:29,35-25.53N,139-44.13E,228,25.932,29.8603
283,2018/8/18,13:30,35-25.32N,139-43.84E,227,25.883,29.9679
284,2018/8/18,13:31,35-25.10N,139-43.55E,227,25.875,30.0858
285,2018/8/18,13:32,35-24.86N,139-43.31E,211,25.849,30.2239
286,2018/8/18,13:33,35-24.59N,139-43.14E,206,25.757,30.316
287,2018/8/18,13:34,35-24.30N,139-42.99E,204,25.643,30.4111
288,2018/8/18,13:35,35-24.02N,139-42.83E,204,25.608,30.5829
289,2018/8/18,13:36,35-23.73N,139-42.67E,204,25.519,30.712
290,2018/8/18,13:37,35-23.43N,139-42.50E,204,25.539,30.896
291,2018/8/18,13:38,35-23.14N,139-42.36E,196,25.593,30.9979
292,2018/8/18,13:39,35-22.84N,139-42.36E,177,25.486,31.0171
293,2018/8/18,13:40,35-22.53N,139-42.38E,176,25.415,31.0548
294,2018/8/18,13:41,35-22.22N,139-42.41E,176,25.415,31.1856
295,2018/8/18,13:42,35-21.90N,139-42.43E,177,25.411,31.2679
296,2018/8/18,13:43,35-21.58N,139-42.44E,179,25.378,31.284
297,2018/8/18,13:44,35-21.26N,139-42.44E,179,25.37,31.311
298,2018/8/18,13:45,35-20.94N,139-42.44E,179,25.374,31.3652
299,2018/8/18,13:46,35-20.64N,139-42.45E,179,25.375,31.395
300,2018/8/18,13:47,35-20.38N,139-42.45E,179,25.341,31.4676
301,2018/8/18,13:48,35-20.14N,139-42.45E,179,25.309,31.5316
302,2018/8/18,13:49,35-19.92N,139-42.48E,163,25.228,31.5778
303,2018/8/18,13:50,35-19.74N,139-42.62E,147,25.205,31.6494
304,2018/8/18,13:51,35-19.57N,139-42.76E,146,25.158,31.6349
305,2018/8/18,13:52,35-19.39N,139-42.91E,146,25.101,31.7062
306,2018/8/18,13:53,35-19.21N,139-43.06E,146,25.063,31.7739
307,2018/8/18,13:54,35-19.03N,139-43.20E,146,25.031,31.8426
308,2018/8/18,13:55,35-18.85N,139-43.36E,145,24.956,31.8957
309,2018/8/18,13:56,35-18.67N,139-43.50E,145,24.916,31.9485
310,2018/8/18,13:57,35-18.49N,139-43.65E,146,24.884,31.985
311,2018/8/18,13:58,35-18.30N,139-43.81E,145,24.879,32.0203
312,2018/8/18,13:59,35-18.12N,139-43.96E,145,24.888,32.0437
313,2018/8/18,14:00,35-17.94N,139-44.11E,145,24.836,32.0833
314,2018/8/18,14:01,35-17.77N,139-44.26E,145,24.751,32.1265
315,2018/8/18,14:02,35-17.60N,139-44.41E,144,24.706,32.239
316,2018/8/18,14:03,35-17.43N,139-44.56E,144,24.768,32.298
317,2018/8/18,14:04,35-17.26N,139-44.71E,143,24.823,32.2638
318,2018/8/18,14:05,35-17.08N,139-44.87E,143,24.995,32.2277
319,2018/8/18,14:06,35-16.91N,139-45.03E,143,25.083,32.1313
320,2018/8/18,14:07,35-16.73N,139-45.19E,143,25.215,31.9535
321,2018/8/18,14:08,35-16.56N,139-45.35E,144,25.196,31.8657
322,2018/8/18,14:09,35-16.38N,139-45.51E,143,25.102,31.8733
323,2018/8/18,14:10,35-16.21N,139-45.66E,144,25.017,31.7432
324,2018/8/18,14:11,35-16.03N,139-45.82E,143,25,31.623
325,2018/8/18,14:12,35-15.86N,139-45.97E,144,24.937,31.5146
326,2018/8/18,14:13,35-15.67N,139-46.10E,155,24.956,31.5063
327,2018/8/18,14:14,35-15.47N,139-46.16E,170,24.96,31.4981
328,2018/8/18,14:15,35-15.26N,139-46.19E,173,24.952,31.4974
329,2018/8/18,14:16,35-15.05N,139-46.23E,173,24.91,31.4985
330,2018/8/18,14:17,35-14.84N,139-46.25E,173,24.895,31.5705
331,2018/8/18,14:18,35-14.62N,139-46.28E,174,24.856,31.6221
332,2018/8/18,14:19,35-14.42N,139-46.30E,174,24.759,31.7095
333,2018/8/18,14:20,35-14.21N,139-46.32E,177,24.752,31.8175
334,2018/8/18,14:21,35-13.99N,139-46.33E,178,24.735,31.9027
335,2018/8/18,14:22,35-13.78N,139-46.34E,178,24.736,31.9286
336,2018/8/18,14:23,35-13.57N,139-46.34E,179,24.745,31.9582
337,2018/8/18,14:24,35-13.36N,139-46.34E,179,24.627,31.9553
338,2018/8/18,14:25,35-13.14N,139-46.35E,179,24.463,31.9281
339,2018/8/18,14:26,35-12.93N,139-46.34E,181,24.446,32.2293
340,2018/8/18,14:27,35-12.72N,139-46.30E,190,24.454,32.4484
341,2018/8/18,14:28,35-12.50N,139-46.25E,191,24.472,32.5183
342,2018/8/18,14:29,35-12.26N,139-46.17E,195,24.521,32.5689
343,2018/8/18,14:30,35-12.00N,139-46.09E,194,24.58,32.6152
344,2018/8/18,14:31,35-11.71N,139-46.00E,195,24.627,32.6863
345,2018/8/18,14:32,35-11.42N,139-45.90E,196,24.675,32.7877
346,2018/8/18,14:33,35-11.12N,139-45.78E,197,24.678,32.8154
347,2018/8/18,14:34,35-10.81N,139-45.66E,198,24.677,32.7958
348,2018/8/18,14:35,35-10.51N,139-45.54E,198,24.658,32.7375
349,2018/8/18,14:36,35-10.19N,139-45.41E,198,24.694,32.7003
350,2018/8/18,14:37,35-09.88N,139-45.28E,198,24.706,32.6749
351,2018/8/18,14:38,35-09.56N,139-45.15E,198,24.709,32.6764
352,2018/8/18,14:39,35-09.25N,139-45.02E,197,24.72,32.6807
353,2018/8/18,14:40,35-08.93N,139-44.90E,197,24.725,32.7203
354,2018/8/18,14:41,35-08.61N,139-44.78E,196,24.786,32.8309
355,2018/8/18,14:42,35-08.28N,139-44.67E,195,24.881,32.9238
356,2018/8/18,14:43,35-07.96N,139-44.56E,195,25.021,33.0436
357,2018/8/18,14:44,35-07.65N,139-44.46E,194,25.256,33.1582
358,2018/8/18,14:45,35-07.33N,139-44.37E,194,25.379,33.4261
359,2018/8/18,14:46,35-07.01N,139-44.27E,194,25.466,33.6471
360,2018/8/18,14:47,35-06.69N,139-44.17E,194,25.517,33.7636
361,2018/8/18,14:48,35-06.37N,139-44.07E,194,25.535,33.8058
362,2018/8/18,14:49,35-06.05N,139-43.97E,194,25.524,33.849
363,2018/8/18,14:50,35-05.73N,139-43.87E,193,25.538,33.8636
364,2018/8/18,14:51,35-05.41N,139-43.78E,193,25.535,33.8869
365,2018/8/18,14:52,35-05.09N,139-43.68E,193,25.565,33.9008
366,2018/8/18,14:53,35-04.76N,139-43.58E,193,25.58,33.9164
367,2018/8/18,14:54,35-04.44N,139-43.49E,193,25.582,33.9247
368,2018/8/18,14:55,35-04.12N,139-43.39E,193,25.576,33.929
369,2018/8/18,14:56,35-03.80N,139-43.29E,193,25.572,33.9296
370,2018/8/18,14:57,35-03.48N,139-43.20E,193,25.584,33.9343
371,2018/8/18,14:58,35-03.15N,139-43.10E,193,25.58,33.9366
372,2018/8/18,14:59,35-02.83N,139-43.00E,193,25.556,33.9423
373,2018/8/18,15:00,35-02.50N,139-42.90E,194,25.496,33.9463
374,2018/8/18,15:01,35-02.19N,139-42.81E,194,25.443,33.9524
375,2018/8/18,15:02,35-01.86N,139-42.71E,194,25.434,33.961
376,2018/8/18,15:03,35-01.54N,139-42.60E,194,25.424,33.9672
377,2018/8/18,15:04,35-01.22N,139-42.49E,196,25.135,33.9671
378,2018/8/18,15:05,35-00.91N,139-42.38E,195,25.117,33.9682
379,2018/8/18,15:06,35-00.58N,139-42.29E,190,24.861,33.9728
380,2018/8/18,15:07,35-00.24N,139-42.22E,191,25.001,33.9687
381,2018/8/18,15:08,34-59.92N,139-42.13E,193,25.504,33.9882
382,2018/8/18,15:09,34-59.59N,139-42.03E,194,25.857,33.9941
383,2018/8/18,15:10,34-59.27N,139-41.93E,193,26.101,34.0361
384,2018/8/18,15:11,34-58.93N,139-41.84E,193,26.365,34.0937
385,2018/8/18,15:12,34-58.61N,139-41.75E,193,26.516,34.0607
386,2018/8/18,15:13,34-58.29N,139-41.66E,193,26.582,34.0194
387,2018/8/18,15:14,34-57.96N,139-41.66E,168,26.595,34.0039
388,2018/8/18,15:15,34-57.70N,139-41.85E,144,26.653,33.9974
389,2018/8/18,15:16,34-57.44N,139-42.09E,143,26.664,33.9937
390,2018/8/18,15:17,34-57.17N,139-42.33E,142,26.661,33.9926
391,2018/8/18,15:18,34-56.91N,139-42.58E,142,26.656,33.9917
392,2018/8/18,15:19,34-56.63N,139-42.83E,143,26.677,33.9947
393,2018/8/18,15:20,34-56.36N,139-43.08E,143,26.689,34.0066
394,2018/8/18,15:21,34-56.08N,139-43.32E,144,26.693,34.0123
395,2018/8/18,15:22,34-55.80N,139-43.56E,144,26.704,34.0142
396,2018/8/18,15:23,34-55.52N,139-43.81E,144,26.697,34.0172
397,2018/8/18,15:24,34-55.24N,139-44.05E,144,26.696,34.0228
398,2018/8/18,15:25,34-54.96N,139-44.30E,144,26.675,34.0315
399,2018/8/18,15:26,34-54.67N,139-44.55E,144,26.632,34.0378
400,2018/8/18,15:27,34-54.38N,139-44.80E,144,26.559,34.0419
401,2018/8/18,15:28,34-54.10N,139-45.04E,144,26.471,34.0464
402,2018/8/18,15:29,34-53.81N,139-45.29E,145,26.344,34.0573
403,2018/8/18,15:30,34-53.52N,139-45.53E,145,26.278,34.0719
404,2018/8/18,15:31,34-53.22N,139-45.78E,145,26.157,34.0829
405,2018/8/18,15:32,34-52.92N,139-46.02E,146,26.152,34.0861
406,2018/8/18,15:33,34-52.63N,139-46.26E,146,26.086,34.0956
407,2018/8/18,15:34,34-52.34N,139-46.50E,145,26.075,34.0978
408,2018/8/18,15:35,34-52.05N,139-46.75E,145,26.027,34.1234
409,2018/8/18,15:36,34-51.77N,139-46.99E,145,26.022,34.1555
410,2018/8/18,15:37,34-51.48N,139-47.22E,146,25.985,34.1691
411,2018/8/18,15:38,34-51.19N,139-47.46E,144,25.904,34.1698
412,2018/8/18,15:39,34-50.99N,139-47.76E,117,25.879,34.1781
413,2018/8/18,15:40,34-50.93N,139-48.12E,96,25.855,34.172
414,2018/8/18,15:41,34-50.92N,139-48.51E,92,25.782,34.1707
415,2018/8/18,15:42,34-50.90N,139-48.90E,92,25.73,34.1742
416,2018/8/18,15:43,34-50.89N,139-49.31E,92,25.662,34.1539
417,2018/8/18,15:44,34-50.88N,139-49.72E,92,25.608,34.13
418,2018/8/18,15:45,34-50.86N,139-50.14E,92,25.559,34.1048
419,2018/8/18,15:46,34-50.85N,139-50.54E,91,25.508,34.0806
420,2018/8/18,15:47,34-50.84N,139-50.96E,91,25.473,34.0577
421,2018/8/18,15:48,34-50.84N,139-51.38E,90,25.44,34.0384
422,2018/8/18,15:49,34-50.84N,139-51.79E,89,25.408,34.0289
423,2018/8/18,15:50,34-50.84N,139-52.19E,89,25.322,34.0225
424,2018/8/18,15:51,34-50.84N,139-52.60E,90,25.574,34.032
425,2018/8/18,15:52,34-50.84N,139-53.01E,90,25.655,34.0664
426,2018/8/18,15:53,34-50.84N,139-53.42E,90,25.686,34.1195
427,2018/8/18,15:54,34-50.84N,139-53.83E,89,25.695,34.1368
428,2018/8/18,15:55,34-50.84N,139-54.23E,90,25.714,34.1404
429,2018/8/18,15:56,34-50.84N,139-54.63E,89,25.735,34.1398
430,2018/8/18,15:57,34-50.86N,139-55.03E,82,25.765,34.1379
431,2018/8/18,15:58,34-50.97N,139-55.39E,64,25.788,34.138
432,2018/8/18,15:59,34-51.13N,139-55.75E,62,25.796,34.1397
433,2018/8/18,16:00,34-51.29N,139-56.10E,61,25.782,34.1399
434,2018/8/18,16:01,34-51.45N,139-56.45E,61,25.804,34.1395
435,2018/8/18,16:02,34-51.60N,139-56.80E,62,25.82,34.1378
436,2018/8/18,16:03,34-51.75N,139-57.17E,63,25.813,34.1378
437,2018/8/18,16:04,34-51.91N,139-57.53E,61,25.773,34.1355
438,2018/8/18,16:05,34-52.07N,139-57.88E,61,25.73,34.1348
439,2018/8/18,16:06,34-52.23N,139-58.24E,62,25.706,34.1281
440,2018/8/18,16:07,34-52.38N,139-58.60E,61,25.647,34.1263
441,2018/8/18,16:08,34-52.55N,139-58.96E,61,25.626,34.1203
442,2018/8/18,16:09,34-52.71N,139-59.32E,61,25.592,34.1238
443,2018/8/18,16:10,34-52.87N,139-59.68E,61,25.586,34.1168
444,2018/8/18,16:11,34-53.03N,140-00.04E,62,25.6,34.1192
445,2018/8/18,16:12,34-53.18N,140-00.41E,62,25.586,34.1254
446,2018/8/18,16:13,34-53.33N,140-00.77E,64,25.498,34.1275
447,2018/8/18,16:14,34-53.48N,140-01.13E,63,25.318,34.1331
448,2018/8/18,16:15,34-53.63N,140-01.49E,63,25.298,34.1309
449,2018/8/18,16:16,34-53.78N,140-01.85E,63,25.089,34.1272
450,2018/8/18,16:17,34-53.92N,140-02.22E,64,25.113,34.1097
451,2018/8/18,16:18,34-54.06N,140-02.58E,63,25.119,34.0829
452,2018/8/18,16:19,34-54.22N,140-02.92E,61,25.189,34.0839
453,2018/8/18,16:20,34-54.38N,140-03.26E,59,25.093,34.1315
454,2018/8/18,16:21,34-54.54N,140-03.60E,60,24.647,34.1627
455,2018/8/18,16:22,34-54.71N,140-03.94E,59,24.219,34.1538
456,2018/8/18,16:23,34-54.88N,140-04.28E,58,24.054,34.1318
457,2018/8/18,16:24,34-55.05N,140-04.62E,59,24.082,34.1254
458,2018/8/18,16:25,34-55.21N,140-04.96E,59,24.085,34.1215
459,2018/8/18,16:26,34-55.38N,140-05.29E,58,24.132,34.117
460,2018/8/18,16:27,34-55.55N,140-05.63E,57,24.114,34.1212
461,2018/8/18,16:28,34-55.72N,140-05.96E,58,24.203,34.1285
462,2018/8/18,16:29,34-55.90N,140-06.30E,57,24.246,34.1331
463,2018/8/18,16:30,34-56.08N,140-06.63E,55,24.319,34.1244
464,2018/8/18,16:31,34-56.26N,140-06.95E,56,24.371,34.1145
465,2018/8/18,16:32,34-56.44N,140-07.28E,55,24.355,34.1035
466,2018/8/18,16:33,34-56.63N,140-07.61E,54,24.371,34.0989
467,2018/8/18,16:34,34-56.82N,140-07.93E,53,24.376,34.1029
468,2018/8/18,16:35,34-57.01N,140-08.25E,53,24.362,34.104
469,2018/8/18,16:36,34-57.22N,140-08.57E,52,24.392,34.1037
470,2018/8/18,16:37,34-57.42N,140-08.88E,51,24.376,34.105
471,2018/8/18,16:38,34-57.63N,140-09.20E,51,24.628,34.105
472,2018/8/18,16:39,34-57.83N,140-09.51E,51,24.973,34.1127
473,2018/8/18,16:40,34-58.04N,140-09.84E,52,25.618,34.1276
474,2018/8/18,16:41,34-58.23N,140-10.16E,54,25.762,34.1514
475,2018/8/18,16:42,34-58.43N,140-10.50E,54,25.781,34.1854
476,2018/8/18,16:43,34-58.62N,140-10.83E,55,25.784,34.2005
477,2018/8/18,16:44,34-58.81N,140-11.17E,54,25.795,34.2044
478,2018/8/18,16:45,34-59.01N,140-11.52E,54,25.808,34.2069
479,2018/8/18,16:46,34-59.20N,140-11.86E,56,25.841,34.2092
480,2018/8/18,16:47,34-59.38N,140-12.22E,58,25.873,34.2141
481,2018/8/18,16:48,34-59.56N,140-12.58E,58,25.895,34.2195
482,2018/8/18,16:49,34-59.74N,140-12.95E,59,25.911,34.2249
483,2018/8/18,16:50,34-59.92N,140-13.33E,59,25.909,34.2294
484,2018/8/18,16:51,35-00.10N,140-13.71E,60,25.923,34.2311
485,2018/8/18,16:52,35-00.28N,140-14.09E,60,25.955,34.2314
486,2018/8/18,16:53,35-00.46N,140-14.47E,60,25.963,34.233
487,2018/8/18,16:54,35-00.64N,140-14.86E,60,25.981,34.2328
488,2018/8/18,16:55,35-00.83N,140-15.25E,60,26.015,34.2338
489,2018/8/18,16:56,35-01.01N,140-15.65E,61,26.043,34.2353
490,2018/8/18,16:57,35-01.19N,140-16.05E,61,26.065,34.2347
491,2018/8/18,16:58,35-01.37N,140-16.45E,61,26.049,34.2345
492,2018/8/18,16:59,35-01.55N,140-16.85E,61,26.043,34.2342
493,2018/8/18,17:00,35-01.73N,140-17.25E,61,26.036,34.2332
494,2018/8/18,17:01,35-01.91N,140-17.66E,62,26.031,34.2317
495,2018/8/18,17:02,35-02.09N,140-18.06E,59,26.013,34.2317
496,2018/8/18,17:03,35-02.29N,140-18.47E,59,26.017,34.2327
497,2018/8/18,17:04,35-02.48N,140-18.86E,59,26.006,34.2332
498,2018/8/18,17:05,35-02.67N,140-19.26E,59,25.994,34.2354
499,2018/8/18,17:06,35-02.87N,140-19.65E,59,25.989,34.2372
500,2018/8/18,17:07,35-03.06N,140-20.05E,59,25.943,34.2375
501,2018/8/18,17:08,35-03.25N,140-20.46E,60,25.945,34.2369
502,2018/8/18,17:09,35-03.44N,140-20.85E,60,25.959,34.2375
503,2018/8/18,17:10,35-03.63N,140-21.25E,59,25.982,34.2389
504,2018/8/18,17:11,35-03.82N,140-21.65E,60,25.941,34.2398
505,2018/8/18,17:12,35-04.02N,140-22.06E,59,25.929,34.2418
506,2018/8/18,17:13,35-04.20N,140-22.46E,60,25.928,34.2376
507,2018/8/18,17:14,35-04.39N,140-22.86E,59,25.926,34.2321
508,2018/8/18,17:15,35-04.58N,140-23.26E,60,25.924,34.2273
509,2018/8/18,17:16,35-04.77N,140-23.67E,60,25.943,34.2238
510,2018/8/18,17:17,35-04.95N,140-24.06E,60,25.937,34.2214
511,2018/8/18,17:18,35-05.14N,140-24.47E,60,25.939,34.2193
512,2018/8/18,17:19,35-05.32N,140-24.87E,60,25.954,34.2173
513,2018/8/18,17:20,35-05.51N,140-25.28E,61,25.967,34.2147
514,2018/8/18,17:21,35-05.70N,140-25.70E,61,25.985,34.2118
515,2018/8/18,17:22,35-05.88N,140-26.10E,60,25.989,34.2101
516,2018/8/18,17:23,35-06.06N,140-26.51E,62,25.975,34.2099
517,2018/8/18,17:24,35-06.25N,140-26.91E,61,25.965,34.21
518,2018/8/18,17:25,35-06.43N,140-27.32E,61,25.961,34.2102
519,2018/8/18,17:26,35-06.62N,140-27.73E,60,25.966,34.2112
520,2018/8/18,17:27,35-06.80N,140-28.13E,61,25.95,34.2116
521,2018/8/18,17:28,35-06.98N,140-28.55E,61,25.945,34.2117
522,2018/8/18,17:29,35-07.17N,140-28.96E,61,25.931,34.2105
523,2018/8/18,17:30,35-07.35N,140-29.37E,61,25.895,34.209
524,2018/8/18,17:31,35-07.53N,140-29.78E,62,25.838,34.2079
525,2018/8/18,17:32,35-07.72N,140-30.19E,61,25.752,34.206
526,2018/8/18,17:33,35-07.90N,140-30.60E,61,25.675,34.1983
527,2018/8/18,17:34,35-08.08N,140-31.01E,61,25.645,34.1873
528,2018/8/18,17:35,35-08.27N,140-31.42E,61,25.571,34.1739
529,2018/8/18,17:36,35-08.49N,140-31.78E,45,25.507,34.1632
530,2018/8/18,17:37,35-08.78N,140-32.04E,36,25.524,34.1567
531,2018/8/18,17:38,35-09.07N,140-32.31E,36,25.52,34.1584
532,2018/8/18,17:39,35-09.37N,140-32.59E,36,25.403,34.1561
533,2018/8/18,17:40,35-09.68N,140-32.87E,37,25.34,34.1499
534,2018/8/18,17:41,35-09.98N,140-33.14E,36,25.337,34.1411
535,2018/8/18,17:42,35-10.29N,140-33.42E,37,25.03,34.1291
536,2018/8/18,17:43,35-10.59N,140-33.70E,38,24.584,34.1196
537,2018/8/18,17:44,35-10.89N,140-33.98E,37,24.029,34.1085
538,2018/8/18,17:45,35-11.20N,140-34.26E,36,23.871,34.1063
539,2018/8/18,17:46,35-11.51N,140-34.55E,35,23.167,34.1085
540,2018/8/18,17:47,35-11.82N,140-34.82E,35,22.598,34.1236
541,2018/8/18,17:48,35-12.13N,140-35.09E,36,22.287,34.1887
542,2018/8/18,17:49,35-12.43N,140-35.36E,35,22.119,34.2315
543,2018/8/18,17:50,35-12.73N,140-35.63E,37,22.085,34.247
544,2018/8/18,17:51,35-13.04N,140-35.91E,36,22.077,34.2639
545,2018/8/18,17:52,35-13.34N,140-36.17E,35,22.248,34.2641
546,2018/8/18,17:53,35-13.64N,140-36.44E,36,22.408,34.2606
547,2018/8/18,17:54,35-13.95N,140-36.71E,36,22.402,34.2498
548,2018/8/18,17:55,35-14.25N,140-36.97E,35,22.296,34.2428
549,2018/8/18,17:56,35-14.56N,140-37.23E,34,22.146,34.2406
550,2018/8/18,17:57,35-14.86N,140-37.49E,35,22.111,34.2454
551,2018/8/18,17:58,35-15.16N,140-37.75E,34,21.845,34.2498
552,2018/8/18,17:59,35-15.46N,140-38.00E,34,21.78,34.2605
553,2018/8/18,18:00,35-15.77N,140-38.26E,34,21.829,34.2735
554,2018/8/18,18:01,35-16.08N,140-38.52E,33,22.137,34.2717
555,2018/8/18,18:02,35-16.39N,140-38.77E,33,23.027,34.2646
556,2018/8/18,18:03,35-16.71N,140-39.03E,33,23.844,34.2431
557,2018/8/18,18:04,35-17.03N,140-39.29E,33,24.6,34.1858
558,2018/8/18,18:05,35-17.35N,140-39.55E,35,25.025,34.1173
559,2018/8/18,18:06,35-17.66N,140-39.81E,33,25.098,34.0822
560,2018/8/18,18:07,35-17.99N,140-40.07E,32,25.332,34.0881
561,2018/8/18,18:08,35-18.30N,140-40.33E,33,25.395,34.1026
562,2018/8/18,18:09,35-18.63N,140-40.59E,33,25.446,34.1078
563,2018/8/18,18:10,35-18.95N,140-40.85E,34,25.467,34.1158
564,2018/8/18,18:11,35-19.27N,140-41.12E,34,25.488,34.1153
565,2018/8/18,18:12,35-19.59N,140-41.38E,34,25.496,34.1018
566,2018/8/18,18:13,35-19.90N,140-41.64E,34,25.507,34.0852
567,2018/8/18,18:14,35-20.22N,140-41.90E,33,25.5,34.0739
568,2018/8/18,18:15,35-20.55N,140-42.16E,33,25.5,34.0592
569,2018/8/18,18:16,35-20.86N,140-42.42E,34,25.496,34.0396
570,2018/8/18,18:17,35-21.18N,140-42.67E,33,25.492,34.0303
571,2018/8/18,18:18,35-21.50N,140-42.93E,33,25.475,34.028
572,2018/8/18,18:19,35-21.82N,140-43.19E,33,25.47,34.0264
573,2018/8/18,18:20,35-22.14N,140-43.45E,33,25.451,34.0222
574,2018/8/18,18:21,35-22.46N,140-43.71E,33,25.452,34.0186
575,2018/8/18,18:22,35-22.78N,140-43.97E,34,25.458,34.015
576,2018/8/18,18:23,35-23.11N,140-44.24E,33,25.45,34.0095
577,2018/8/18,18:24,35-23.43N,140-44.50E,33,25.444,34.0124
578,2018/8/18,18:25,35-23.76N,140-44.76E,33,25.467,34.0217
579,2018/8/18,18:26,35-24.08N,140-45.01E,33,25.566,34.051
580,2018/8/18,18:27,35-24.41N,140-45.27E,32,25.594,34.1062
581,2018/8/18,18:28,35-24.74N,140-45.54E,32,25.615,34.1495
582,2018/8/18,18:29,35-25.07N,140-45.80E,32,25.622,34.1706
583,2018/8/18,18:30,35-25.40N,140-46.06E,33,25.61,34.1821
584,2018/8/18,18:31,35-25.72N,140-46.32E,33,25.614,34.1866
585,2018/8/18,18:32,35-26.05N,140-46.58E,34,25.625,34.1912
586,2018/8/18,18:33,35-26.38N,140-46.84E,32,25.632,34.1944
587,2018/8/18,18:34,35-26.71N,140-47.11E,33,25.63,34.1978
588,2018/8/18,18:35,35-27.03N,140-47.38E,34,25.598,34.1995
589,2018/8/18,18:36,35-27.36N,140-47.65E,33,25.563,34.1999
590,2018/8/18,18:37,35-27.69N,140-47.91E,33,25.548,34.2011
591,2018/8/18,18:38,35-28.01N,140-48.18E,34,25.511,34.2005
592,2018/8/18,18:39,35-28.34N,140-48.44E,33,25.472,34.2007
593,2018/8/18,18:40,35-28.66N,140-48.70E,33,25.487,34.1995
594,2018/8/18,18:41,35-28.99N,140-48.98E,34,25.464,34.1976
595,2018/8/18,18:42,35-29.31N,140-49.24E,33,25.441,34.199
596,2018/8/18,18:43,35-29.64N,140-49.50E,33,25.398,34.1965
597,2018/8/18,18:44,35-29.96N,140-49.77E,33,25.336,34.1918
598,2018/8/18,18:45,35-30.29N,140-50.04E,33,25.261,34.1851
599,2018/8/18,18:46,35-30.61N,140-50.30E,33,25.239,34.18
600,2018/8/18,18:47,35-30.94N,140-50.56E,33,25.211,34.1857
601,2018/8/18,18:48,35-31.26N,140-50.83E,33,25.182,34.1924
602,2018/8/18,18:49,35-31.58N,140-51.09E,33,25.149,34.1972
603,2018/8/18,18:50,35-31.91N,140-51.36E,33,24.976,34.2045
604,2018/8/18,18:51,35-32.23N,140-51.62E,33,24.876,34.21
605,2018/8/18,18:52,35-32.54N,140-51.87E,34,24.797,34.2175
606,2018/8/18,18:53,35-32.86N,140-52.13E,33,24.623,34.2201
607,2018/8/18,18:54,35-33.19N,140-52.40E,32,24.522,34.2228
608,2018/8/18,18:55,35-33.50N,140-52.66E,33,24.398,34.2254
609,2018/8/18,18:56,35-33.81N,140-52.91E,34,24.067,34.2286
610,2018/8/18,18:57,35-34.13N,140-53.17E,34,23.875,34.2329
611,2018/8/18,18:58,35-34.44N,140-53.43E,34,23.828,34.232
612,2018/8/18,18:59,35-34.75N,140-53.68E,33,23.758,34.2311
613,2018/8/18,19:00,35-35.07N,140-53.94E,33,23.742,34.2358
614,2018/8/18,19:01,35-35.38N,140-54.20E,34,23.73,34.2428
615,2018/8/18,19:02,35-35.69N,140-54.46E,34,23.694,34.2464
616,2018/8/18,19:03,35-36.01N,140-54.72E,34,23.73,34.2524
617,2018/8/18,19:04,35-36.32N,140-54.97E,33,23.845,34.2552
618,2018/8/18,19:05,35-36.64N,140-55.24E,34,23.869,34.2567
619,2018/8/18,19:06,35-36.97N,140-55.50E,33,23.984,34.2593
620,2018/8/18,19:07,35-37.29N,140-55.77E,34,24.146,34.2615
621,2018/8/18,19:08,35-37.61N,140-56.02E,33,24.238,34.2619
622,2018/8/18,19:09,35-37.94N,140-56.29E,33,24.302,34.2629
623,2018/8/18,19:10,35-38.26N,140-56.55E,34,24.295,34.2651
624,2018/8/18,19:11,35-38.58N,140-56.82E,33,24.329,34.2665
625,2018/8/18,19:12,35-38.91N,140-57.08E,33,24.401,34.268
626,2018/8/18,19:13,35-39.24N,140-57.34E,33,24.525,34.2664
627,2018/8/18,19:14,35-39.55N,140-57.60E,33,24.667,34.2654
628,2018/8/18,19:15,35-39.90N,140-57.75E,11,24.79,34.2637
629,2018/8/18,19:16,35-40.28N,140-57.78E,3,24.594,34.2543
630,2018/8/18,19:17,35-40.67N,140-57.82E,5,24.382,34.2361